Tracking 26443 objects as of 4-Dec-2022
HD Live streaming from Space Station
objects crossing your sky now

COSMOS 1408 DEB

Track COSMOS 1408 DEB now!
10-day predictions


NORAD ID: 49602
Int'l Code: 1982-092CT
Perigee: 440.2 km
Apogee: 519.7 km
Inclination: 82.6 °
Period: 94.1 minutes
Semi major axis: 6850 km
RCS: Unknown
Launch date: September 16, 1982
Source: Commonwealth of Independent States (former USSR) (CIS)
Launch site: PLESETSK MISSILE AND SPACE COMPLEX (PKMTR)

Note: This is SATELLITE DEBRIS
aabbcc
Your satellite tracking list
Your tracking list is empty




NASA's NSSDC Master Catalog

Two Line Element Set (TLE):
1 49602U 82092CT  22337.73196080  .00044796  00000-0  14124-2 0  9997
2 49602  82.6016 107.8998 0057997 149.3536 211.1116 15.31013995 57873
Source of the keplerian elements: AFSPC